sat.trackr.live / text

‹ back to catalog

STARLINK-30774

NORAD 58625 · 2023-203H

PAYLOAD ACTIVE UNKNOWN

§ Identity

Operator
Country
US
Launch date
2023-12-23
Launch site
AFETR
Launch vehicle
Mass (kg)
RCS (m²)

Purposes: comms

External: N2YO · Heavens-Above · Gunter

§ Orbital elements

Epoch: 2026-09-19T16:52:01.993440Z

Period
94.27 min
Inclination
43.0012°
Eccentricity
0.0001472
Mean motion
15.27568528 rev/d
Perigee alt
482.1 km
Apogee alt
484.1 km
Semi-major
6,861.2 km
B*
-3.3666e-5
RAAN
51.3671°
Arg perigee
267.2764°
Mean anomaly
92.7919°
Rev number
15,323

§ Raw data

STARLINK-307741 58625U 23203H   26262.70280085 -.00001188  00000+0 -33666-4 0  99912 58625  43.0012  51.3671 0001472 267.2764  92.7919 15.27568528153239

JSON: /api/v1/satellites/58625 · /tle

For live sub-satellite position, see the globe view (requires WebGL).

§ Visibility from observer

Set your observer location to see the next 7 days of passes ≥ 10°. The values pass through the URL so the page stays shareable.

No JS? Fill the form by hand. The geolocation button needs JavaScript.